| time (UTC) | temp C | wind direction | speed KPH | gust KPH | rain 1hr cm | rain 24hr cm | rain mn cm | humidity % | barometer mb |
| 20260506201529 | 23 | 161 | 1.6 | 9.7 | 0.00 | 0.00 | 0.00 | 62 | 1018.8 |
| 20260506200027 | 23 | 127 | 1.6 | 8.0 | 0.00 | 0.00 | 0.00 | 62 | 1018.9 |
| 20260506194526 | 23 | 38 | 1.6 | 6.4 | 0.00 | 0.00 | 0.00 | 63 | 1019.0 |
| 20260506193024 | 22 | 75 | 0.0 | 9.7 | 0.00 | 0.00 | 0.00 | 64 | 1019.1 |
| 20260506191521 | 21 | 65 | 4.8 | 9.7 | 0.00 | 0.00 | 0.00 | 66 | 1019.2 |
| 20260506190020 | 21 | 165 | 3.2 | 8.0 | 0.00 | 0.00 | 0.00 | 66 | 1019.4 |
| 20260506184537 | 21 | 79 | 3.2 | 8.0 | 0.00 | 0.00 | 0.00 | 66 | 1019.6 |
| 20260506183027 | 20 | 27 | 1.6 | 6.4 | 0.00 | 0.00 | 0.00 | 68 | 1019.7 |
| 20260506181516 | 20 | 65 | 1.6 | 6.4 | 0.00 | 0.00 | 0.00 | 69 | 1019.8 |
| 20260506180012 | 19 | 234 | 1.6 | 9.7 | 0.00 | 0.00 | 0.00 | 70 | 1019.7 |
| 20260506174510 | 18 | 58 | 3.2 | 8.0 | 0.00 | 0.00 | 0.00 | 71 | 1019.7 |
| 20260506173009 | 18 | 64 | 3.2 | 12.9 | 0.00 | 0.00 | 0.00 | 71 | 1019.7 |
| 20260506171508 | 18 | 89 | 1.6 | 8.0 | 0.00 | 0.00 | 0.00 | 73 | 1019.8 |
| 20260506170007 | 18 | 57 | 1.6 | 4.8 | 0.00 | 0.00 | 0.00 | 73 | 1019.8 |
| 20260506164508 | 17 | 20 | 0.0 | 8.0 | 0.00 | 0.00 | 0.00 | 74 | 1019.9 |
| 20260506163002 | 17 | 299 | 0.0 | 4.8 | 0.00 | 0.00 | 0.00 | 74 | 1019.8 |
| 20260506161559 | 16 | 284 | 0.0 | 3.2 | 0.00 | 0.00 | 0.00 | 78 | 1019.9 |
| 20260506160105 | 15 | 323 | 1.6 | 6.4 | 0.00 | 0.00 | 0.00 | 80 | 1019.9 |
| 20260506154601 | 15 | 288 | 1.6 | 3.2 | 0.00 | 0.00 | 0.00 | 79 | 1019.8 |
| 20260506153112 | 15 | 262 | 0.0 | 3.2 | 0.00 | 0.00 | 0.00 | 81 | 1019.9 |
| 20260506151552 | 15 | 286 | 0.0 | 4.8 | 0.00 | 0.00 | 0.00 | 82 | 1019.8 |
| 20260506150058 | 14 | 58 | 0.0 | 4.8 | 0.00 | 0.00 | 0.00 | 84 | 1019.8 |
| 20260506144554 | 13 | 67 | 0.0 | 3.2 | 0.00 | 0.00 | 0.00 | 87 | 1019.8 |
| 20260506143043 | 13 | 269 | 0.0 | 3.2 | 0.00 | 0.00 | 0.00 | 88 | 1019.8 |
| 20260506141542 | 12 | 281 | 0.0 | 3.2 | 0.00 | 0.00 | 0.00 | 88 | 1019.6 |
| 20260506140040 | 12 | 296 | 1.6 | 4.8 | 0.00 | 0.00 | 0.00 | 89 | 1019.4 |
| 20260506134538 | 12 | 277 | 0.0 | 3.2 | 0.00 | 0.00 | 0.00 | 89 | 1019.3 |
| 20260506133038 | 12 | 275 | 1.6 | 4.8 | 0.00 | 0.00 | 0.00 | 89 | 1019.2 |
| 20260506131540 | 12 | 295 | 0.0 | 8.0 | 0.00 | 0.00 | 0.00 | 89 | 1019.3 |
| 20260506130034 | 12 | 293 | 0.0 | 0.0 | 0.00 | 0.00 | 0.00 | 89 | 1019.1 |
| 20260506124533 | 12 | 277 | 0.0 | 1.6 | 0.00 | 0.00 | 0.00 | 88 | 1018.9 |
| 20260506123033 | 12 | 289 | 0.0 | 3.2 | 0.00 | 0.00 | 0.00 | 88 | 1019.0 |
| 20260506121532 | 12 | 276 | 0.0 | 4.8 | 0.00 | 0.00 | 0.00 | 88 | 1018.8 |
| 20260506120034 | 12 | 285 | 1.6 | 4.8 | 0.00 | 0.00 | 0.00 | 88 | 1018.8 |
| 20260506114530 | 12 | 280 | 1.6 | 4.8 | 0.00 | 0.00 | 0.00 | 88 | 1018.8 |
| 20260506113037 | 12 | 281 | 0.0 | 1.6 | 0.00 | 0.00 | 0.00 | 87 | 1018.5 |
| 20260506111528 | 12 | 281 | 0.0 | 4.8 | 0.00 | 0.00 | 0.00 | 86 | 1018.4 |
| 20260506110025 | 12 | 270 | 1.6 | 4.8 | 0.00 | 0.00 | 0.00 | 86 | 1018.3 |
| 20260506104525 | 12 | 270 | 0.0 | 3.2 | 0.00 | 0.00 | 0.00 | 86 | 1018.2 |
| 20260506103026 | 12 | 293 | 0.0 | 3.2 | 0.00 | 0.00 | 0.00 | 86 | 1018.2 |
| 20260506101523 | 12 | 290 | 1.6 | 4.8 | 0.00 | 0.00 | 0.00 | 86 | 1018.1 |
| 20260506100022 | 12 | 279 | 1.6 | 3.2 | 0.00 | 0.00 | 0.00 | 86 | 1018.1 |
| 20260506094522 | 12 | 294 | 0.0 | 1.6 | 0.00 | 0.00 | 0.00 | 86 | 1018.2 |
| 20260506093020 | 12 | 303 | 1.6 | 4.8 | 0.00 | 0.00 | 0.00 | 85 | 1018.2 |
| 20260506091519 | 12 | 14 | 0.0 | 3.2 | 0.00 | 0.00 | 0.00 | 86 | 1018.2 |
| 20260506090022 | 12 | 275 | 0.0 | 1.6 | 0.00 | 0.00 | 0.00 | 86 | 1018.1 |
| 20260506084518 | 12 | 303 | 0.0 | 3.2 | 0.00 | 0.05 | 0.00 | 86 | 1018.2 |
| 20260506083017 | 12 | 291 | 0.0 | 4.8 | 0.00 | 0.05 | 0.00 | 86 | 1018.2 |
| 20260506081519 | 12 | 309 | 0.0 | 3.2 | 0.00 | 0.05 | 0.00 | 87 | 1018.2 |
| 20260506073009 | 11 | 277 | 0.0 | 3.2 | 0.00 | 0.13 | 0.00 | 89 | 1018.0 |
| 20260506071507 | 11 | 274 | 0.0 | 0.0 | 0.00 | 0.13 | 0.00 | 90 | 1017.9 |
| 20260506061501 | 11 | 297 | 1.6 | 3.2 | 0.00 | 0.15 | 0.13 | 90 | 1017.6 |
| 20260506050107 | 11 | 266 | 0.0 | 4.8 | 0.00 | 0.23 | 0.13 | 88 | 1017.2 |
| 20260506044555 | 12 | 267 | 1.6 | 4.8 | 0.00 | 0.38 | 0.13 | 88 | 1017.1 |
| 20260506043053 | 12 | 293 | 0.0 | 3.2 | 0.00 | 0.38 | 0.13 | 87 | 1017.0 |
| 20260506041551 | 12 | 302 | 1.6 | 4.8 | 0.00 | 0.38 | 0.13 | 87 | 1016.7 |
| 20260506040049 | 12 | 266 | 0.0 | 4.8 | 0.00 | 0.38 | 0.13 | 86 | 1016.4 |
| 20260506034559 | 13 | 290 | 1.6 | 4.8 | 0.00 | 0.43 | 0.13 | 84 | 1016.1 |
| 20260506033045 | 13 | 276 | 0.0 | 6.4 | 0.00 | 0.43 | 0.13 | 83 | 1015.8 |
| 20260506031544 | 13 | 291 | 0.0 | 6.4 | 0.00 | 0.43 | 0.13 | 83 | 1015.5 |
| 20260506030043 | 13 | 285 | 0.0 | 6.4 | 0.00 | 0.43 | 0.13 | 82 | 1015.4 |
| 20260506024557 | 14 | 276 | 1.6 | 6.4 | 0.00 | 0.43 | 0.13 | 81 | 1015.3 |
| 20260506023041 | 15 | 280 | 0.0 | 8.0 | 0.00 | 0.43 | 0.13 | 80 | 1015.3 |
| 20260506021540 | 15 | 289 | 1.6 | 9.7 | 0.00 | 0.43 | 0.13 | 80 | 1015.1 |
| 20260506020039 | 15 | 266 | 3.2 | 9.7 | 0.00 | 0.43 | 0.13 | 80 | 1014.8 |
| 20260506014538 | 16 | 293 | 1.6 | 12.9 | 0.00 | 0.43 | 0.13 | 79 | 1014.8 |
| 20260506013057 | 16 | 290 | 0.0 | 8.0 | 0.00 | 0.43 | 0.13 | 78 | 1014.8 |
| 20260506011542 | 16 | 360 | 4.8 | 11.3 | 0.00 | 0.43 | 0.13 | 77 | 1014.9 |
| 20260506010038 | 16 | 296 | 3.2 | 6.4 | 0.00 | 0.43 | 0.13 | 76 | 1014.8 |
| 20260506004536 | 17 | 324 | 1.6 | 11.3 | 0.00 | 0.43 | 0.13 | 77 | 1014.7 |
| 20260506003038 | 17 | 314 | 3.2 | 11.3 | 0.00 | 0.43 | 0.13 | 76 | 1014.6 |
| 20260506001538 | 16 | 266 | 1.6 | 19.3 | 0.00 | 0.43 | 0.13 | 77 | 1014.5 |
| 20260506000034 | 16 | 335 | 4.8 | 19.3 | 0.00 | 0.43 | 0.13 | 78 | 1014.5 |
| 20260505234537 | 16 | 302 | 8.0 | 16.1 | 0.00 | 0.43 | 0.13 | 77 | 1014.6 |
| 20260505233033 | 16 | 264 | 3.2 | 12.9 | 0.00 | 0.43 | 0.13 | 77 | 1014.5 |
| 20260505231536 | 16 | 293 | 3.2 | 14.5 | 0.00 | 0.43 | 0.13 | 77 | 1014.5 |
| 20260505230048 | 17 | 20 | 1.6 | 14.5 | 0.00 | 0.43 | 0.13 | 76 | 1014.5 |
| 20260505224531 | 17 | 274 | 1.6 | 8.0 | 0.00 | 0.43 | 0.13 | 74 | 1014.4 |
| 20260505223030 | 18 | 8 | 1.6 | 8.0 | 0.00 | 0.43 | 0.13 | 73 | 1014.4 |
| 20260505221534 | 18 | 56 | 1.6 | 8.0 | 0.00 | 0.43 | 0.13 | 72 | 1014.4 |
| 20260505220027 | 17 | 293 | 4.8 | 11.3 | 0.00 | 0.43 | 0.13 | 71 | 1014.5 |
| 20260505214527 | 17 | 251 | 1.6 | 9.7 | 0.00 | 0.43 | 0.13 | 72 | 1014.6 |
| 20260505213033 | 18 | 302 | 1.6 | 6.4 | 0.00 | 0.43 | 0.13 | 73 | 1014.7 |
| 20260505211523 | 17 | 290 | 8.0 | 16.1 | 0.00 | 0.43 | 0.13 | 72 | 1014.7 |
| 20260505210021 | 17 | 297 | 1.6 | 11.3 | 0.00 | 0.43 | 0.13 | 74 | 1014.8 |
| 20260505204520 | 17 | 290 | 3.2 | 11.3 | 0.00 | 0.43 | 0.13 | 74 | 1014.9 |
| 20260505203025 | 16 | 292 | 3.2 | 14.5 | 0.00 | 0.43 | 0.13 | 76 | 1014.9 |